| time (UTC) | temp F | wind direction | speed knots | gust knots | rain 1hr in | rain 24hr in | rain mn in | humidity % | barometer mb |
| 20260504010100 | 53 | 202 | 0.9 | 6.1 | 0.00 | 0.00 | 0.00 | 50 | 1012.3 |
| 20260504004555 | 54 | 193 | 1.7 | 6.1 | 0.00 | 0.00 | 0.00 | 48 | 1012.2 |
| 20260504003155 | 55 | 217 | 2.6 | 7.8 | 0.00 | 0.00 | 0.00 | 46 | 1012.2 |
| 20260504001601 | 56 | 185 | 3.5 | 7.0 | 0.00 | 0.00 | 0.00 | 44 | 1012.2 |
| 20260504000054 | 56 | 163 | 3.5 | 9.6 | 0.00 | 0.00 | 0.00 | 44 | 1012.2 |
| 20260503234553 | 56 | 189 | 0.9 | 7.0 | 0.00 | 0.00 | 0.00 | 45 | 1012.3 |
| 20260503233052 | 57 | 239 | 3.5 | 9.6 | 0.00 | 0.00 | 0.00 | 44 | 1012.4 |
| 20260503231550 | 57 | 245 | 3.5 | 10.4 | 0.00 | 0.00 | 0.00 | 43 | 1012.4 |
| 20260503230050 | 57 | 210 | 2.6 | 9.6 | 0.00 | 0.00 | 0.00 | 44 | 1012.4 |
| 20260503224549 | 57 | 209 | 5.2 | 12.2 | 0.00 | 0.00 | 0.00 | 43 | 1012.5 |
| 20260503223048 | 57 | 243 | 4.3 | 13.0 | 0.00 | 0.00 | 0.00 | 42 | 1012.7 |
| 20260503221547 | 57 | 160 | 5.2 | 13.9 | 0.00 | 0.00 | 0.00 | 43 | 1012.7 |
| 20260503220051 | 57 | 219 | 5.2 | 10.4 | 0.00 | 0.00 | 0.00 | 43 | 1012.7 |
| 20260503214546 | 58 | 236 | 4.3 | 11.3 | 0.00 | 0.00 | 0.00 | 42 | 1012.7 |
| 20260503213052 | 58 | 231 | 3.5 | 9.6 | 0.00 | 0.00 | 0.00 | 42 | 1012.6 |
| 20260503211545 | 58 | 265 | 2.6 | 11.3 | 0.00 | 0.00 | 0.00 | 41 | 1012.5 |
| 20260503210100 | 58 | 214 | 2.6 | 11.3 | 0.00 | 0.00 | 0.00 | 41 | 1012.6 |
| 20260503204547 | 59 | 212 | 3.5 | 13.0 | 0.00 | 0.00 | 0.00 | 41 | 1012.6 |
| 20260503203051 | 58 | 203 | 3.5 | 10.4 | 0.00 | 0.00 | 0.00 | 43 | 1012.7 |
| 20260503201545 | 58 | 186 | 4.3 | 9.6 | 0.00 | 0.00 | 0.00 | 41 | 1012.9 |
| 20260503200047 | 59 | 166 | 4.3 | 11.3 | 0.00 | 0.00 | 0.00 | 40 | 1013.1 |
| 20260503194543 | 58 | 65 | 2.6 | 13.0 | 0.00 | 0.00 | 0.00 | 43 | 1013.4 |
| 20260503193046 | 59 | 235 | 5.2 | 15.6 | 0.00 | 0.00 | 0.00 | 40 | 1013.7 |
| 20260503191538 | 58 | 238 | 6.1 | 10.4 | 0.00 | 0.00 | 0.00 | 40 | 1013.9 |
| 20260503190007 | 58 | 147 | 6.1 | 14.8 | 0.00 | 0.00 | 0.00 | 41 | 1014.0 |
| 20260503184505 | 58 | 266 | 5.2 | 15.6 | 0.00 | 0.00 | 0.00 | 40 | 1014.1 |
| 20260503183002 | 58 | 246 | 5.2 | 15.6 | 0.00 | 0.00 | 0.00 | 40 | 1014.3 |
| 20260503181504 | 58 | 261 | 3.5 | 15.6 | 0.00 | 0.00 | 0.00 | 42 | 1014.4 |
| 20260503180100 | 58 | 266 | 5.2 | 13.9 | 0.00 | 0.00 | 0.00 | 42 | 1014.6 |
| 20260503174558 | 57 | 226 | 5.2 | 11.3 | 0.00 | 0.00 | 0.00 | 42 | 1014.7 |
| 20260503173101 | 57 | 223 | 4.3 | 15.6 | 0.00 | 0.00 | 0.00 | 42 | 1014.8 |
| 20260503171554 | 57 | 288 | 3.5 | 11.3 | 0.00 | 0.00 | 0.00 | 42 | 1015.0 |
| 20260503081630 | 34 | 223 | 0.0 | 0.0 | 0.00 | 0.15 | 0.00 | 87 | 1016.0 |
| 20260503071520 | 34 | 215 | 0.0 | 0.0 | 0.00 | 0.15 | 0.00 | 86 | 1016.0 |
| 20260503054513 | 35 | 214 | 0.0 | 0.0 | 0.00 | 0.17 | 0.00 | 83 | 1016.3 |
| 20260503053006 | 36 | 221 | 0.0 | 0.0 | 0.00 | 0.17 | 0.00 | 83 | 1016.4 |
| 20260503051504 | 36 | 218 | 0.0 | 0.0 | 0.00 | 0.17 | 0.00 | 82 | 1016.4 |
| 20260503050010 | 36 | 219 | 0.0 | 0.0 | 0.00 | 0.18 | 0.00 | 81 | 1016.5 |
| 20260503044613 | 37 | 213 | 0.0 | 0.0 | 0.00 | 0.18 | 0.00 | 80 | 1016.5 |
| 20260503043102 | 37 | 212 | 0.0 | 0.0 | 0.00 | 0.18 | 0.00 | 76 | 1016.5 |
| 20260503041554 | 38 | 218 | 0.0 | 0.0 | 0.00 | 0.18 | 0.00 | 74 | 1016.5 |
| 20260503040052 | 38 | 219 | 0.0 | 0.0 | 0.00 | 0.18 | 0.00 | 73 | 1016.6 |
| 20260503034554 | 39 | 214 | 0.0 | 0.0 | 0.00 | 0.18 | 0.18 | 71 | 1016.7 |
| 20260503033109 | 39 | 209 | 0.0 | 0.0 | 0.00 | 0.18 | 0.18 | 69 | 1016.7 |
| 20260503031557 | 39 | 211 | 0.0 | 0.0 | 0.00 | 0.18 | 0.18 | 69 | 1016.8 |
| 20260503030110 | 39 | 218 | 0.0 | 0.0 | 0.00 | 0.18 | 0.18 | 72 | 1016.8 |
| 20260503024623 | 39 | 218 | 0.0 | 0.0 | 0.00 | 0.18 | 0.18 | 70 | 1016.9 |
| 20260503023058 | 39 | 218 | 0.0 | 0.0 | 0.00 | 0.18 | 0.18 | 70 | 1017.1 |
| 20260503021600 | 39 | 269 | 0.0 | 0.0 | 0.00 | 0.18 | 0.18 | 70 | 1017.1 |
| 20260503020054 | 39 | 269 | 0.0 | 0.0 | 0.00 | 0.18 | 0.18 | 68 | 1017.0 |
| 20260503014554 | 39 | 269 | 0.0 | 0.0 | 0.00 | 0.18 | 0.18 | 65 | 1017.0 |
| 20260503013053 | 40 | 269 | 0.0 | 0.0 | 0.00 | 0.18 | 0.18 | 65 | 1017.0 |
| 20260503011559 | 40 | 267 | 0.0 | 0.0 | 0.00 | 0.18 | 0.18 | 64 | 1017.0 |